Year,Month,Day,Hour,Minute,Value (Times are PST for temperature in C)
2017,07,23,00,00,18.10
2017,07,23,00,01,18.10
2017,07,23,00,02,18.10
2017,07,23,00,03,18.10
2017,07,23,00,04,18.10
2017,07,23,00,05,18.10
2017,07,23,00,06,18.10
2017,07,23,00,07,18.10
2017,07,23,00,08,18.00
2017,07,23,00,09,18.00
2017,07,23,00,10,18.00
2017,07,23,00,11,18.00
2017,07,23,00,12,18.00
2017,07,23,00,13,17.90
2017,07,23,00,14,17.90
2017,07,23,00,15,17.90
2017,07,23,00,16,17.90
2017,07,23,00,17,17.90
2017,07,23,00,18,17.90
2017,07,23,00,19,17.90
2017,07,23,00,20,17.90
2017,07,23,00,21,17.90
2017,07,23,00,22,17.90
2017,07,23,00,23,17.80
2017,07,23,00,24,17.80
2017,07,23,00,25,17.80
2017,07,23,00,26,17.80
2017,07,23,00,27,17.80
2017,07,23,00,28,17.80
2017,07,23,00,29,17.80
2017,07,23,00,30,17.80
2017,07,23,00,31,17.80
2017,07,23,00,32,17.80
2017,07,23,00,33,17.80
2017,07,23,00,34,17.80
2017,07,23,00,35,17.80
2017,07,23,00,36,17.80
2017,07,23,00,37,17.80
2017,07,23,00,38,17.80
2017,07,23,00,39,17.80
2017,07,23,00,40,17.70
2017,07,23,00,41,17.70
2017,07,23,00,42,17.70
2017,07,23,00,43,17.70
2017,07,23,00,44,17.70
2017,07,23,00,45,17.70
2017,07,23,00,46,17.70
2017,07,23,00,47,17.70
2017,07,23,00,48,17.70
2017,07,23,00,49,17.70
2017,07,23,00,50,17.70
2017,07,23,00,51,17.60
2017,07,23,00,52,17.60
2017,07,23,00,53,17.60
2017,07,23,00,54,17.60
2017,07,23,00,55,17.60
2017,07,23,00,56,17.60
2017,07,23,00,57,17.60
2017,07,23,00,58,17.60
2017,07,23,00,59,17.60
2017,07,23,01,00,17.60
2017,07,23,01,01,17.50
2017,07,23,01,02,17.50
2017,07,23,01,03,17.50
2017,07,23,01,04,17.50
2017,07,23,01,05,17.50
2017,07,23,01,06,17.50
2017,07,23,01,07,17.50
2017,07,23,01,08,17.50
2017,07,23,01,09,17.50
2017,07,23,01,10,17.40
2017,07,23,01,11,17.40
2017,07,23,01,12,17.40
2017,07,23,01,13,17.40
2017,07,23,01,14,17.40
2017,07,23,01,15,17.40
2017,07,23,01,16,17.40
2017,07,23,01,17,17.40
2017,07,23,01,18,17.40
2017,07,23,01,19,17.40
2017,07,23,01,20,17.40
2017,07,23,01,21,17.40
2017,07,23,01,22,17.40
2017,07,23,01,23,17.40
2017,07,23,01,24,17.40
2017,07,23,01,25,17.40
2017,07,23,01,26,17.40
2017,07,23,01,27,17.40
2017,07,23,01,28,17.40
2017,07,23,01,29,17.40
2017,07,23,01,30,17.40
2017,07,23,01,31,17.40
2017,07,23,01,32,17.40
2017,07,23,01,33,17.40
2017,07,23,01,34,17.40
2017,07,23,01,35,17.40
2017,07,23,01,36,17.40
2017,07,23,01,37,17.40
2017,07,23,01,38,17.40
2017,07,23,01,39,17.40
2017,07,23,01,40,17.40
2017,07,23,01,41,17.40
2017,07,23,01,42,17.40
2017,07,23,01,43,17.40
2017,07,23,01,44,17.40
2017,07,23,01,45,17.40
2017,07,23,01,46,17.40
2017,07,23,01,47,17.40
2017,07,23,01,48,17.40
2017,07,23,01,49,17.40
2017,07,23,01,50,17.40
2017,07,23,01,51,17.40
2017,07,23,01,52,17.40
2017,07,23,01,53,17.40
2017,07,23,01,54,17.40
2017,07,23,01,55,17.40
2017,07,23,01,56,17.40
2017,07,23,01,57,17.40
2017,07,23,01,58,17.40
2017,07,23,01,59,17.40
2017,07,23,02,00,17.40
2017,07,23,02,01,17.40
2017,07,23,02,02,17.40
2017,07,23,02,03,17.40
2017,07,23,02,04,17.40
2017,07,23,02,05,17.40
2017,07,23,02,06,17.40
2017,07,23,02,07,17.40
2017,07,23,02,08,17.40
2017,07,23,02,09,17.40
2017,07,23,02,10,17.40
2017,07,23,02,11,17.40
2017,07,23,02,12,17.40
2017,07,23,02,13,17.40
2017,07,23,02,14,17.40
2017,07,23,02,15,17.40
2017,07,23,02,16,17.40
2017,07,23,02,17,17.40
2017,07,23,02,18,17.40
2017,07,23,02,19,17.40
2017,07,23,02,20,17.50
2017,07,23,02,21,17.50
2017,07,23,02,22,17.50
2017,07,23,02,23,17.50
2017,07,23,02,24,17.50
2017,07,23,02,25,17.50
2017,07,23,02,26,17.50
2017,07,23,02,27,17.50
2017,07,23,02,28,17.50
2017,07,23,02,29,17.60
2017,07,23,02,30,17.50
2017,07,23,02,31,17.60
2017,07,23,02,32,17.60
2017,07,23,02,33,17.60
2017,07,23,02,34,17.60
2017,07,23,02,35,17.60
2017,07,23,02,36,17.60
2017,07,23,02,37,17.60
2017,07,23,02,38,17.60
2017,07,23,02,39,17.60
2017,07,23,02,40,17.60
2017,07,23,02,41,17.60
2017,07,23,02,42,17.60
2017,07,23,02,43,17.60
2017,07,23,02,44,17.60
2017,07,23,02,45,17.60
2017,07,23,02,46,17.60
2017,07,23,02,47,17.60
2017,07,23,02,48,17.60
2017,07,23,02,49,17.70
2017,07,23,02,50,17.70
2017,07,23,02,51,17.70
2017,07,23,02,52,17.70
2017,07,23,02,53,17.70
2017,07,23,02,54,17.70
2017,07,23,02,55,17.70
2017,07,23,02,56,17.70
2017,07,23,02,57,17.70
2017,07,23,02,58,17.70
2017,07,23,02,59,17.70
2017,07,23,03,00,17.70
2017,07,23,03,01,17.70
2017,07,23,03,02,17.70
2017,07,23,03,03,17.70
2017,07,23,03,04,17.70
2017,07,23,03,05,17.70
2017,07,23,03,06,17.70
2017,07,23,03,07,17.70
2017,07,23,03,08,17.70
2017,07,23,03,09,17.70
2017,07,23,03,10,17.70
2017,07,23,03,11,17.70
2017,07,23,03,12,17.70
2017,07,23,03,13,17.70
2017,07,23,03,14,17.70
2017,07,23,03,15,17.80
2017,07,23,03,16,17.70
2017,07,23,03,17,17.80
2017,07,23,03,18,17.80
2017,07,23,03,19,17.80
2017,07,23,03,20,17.80
2017,07,23,03,21,17.80
2017,07,23,03,22,17.80
2017,07,23,03,23,17.80
2017,07,23,03,24,17.80
2017,07,23,03,25,17.70
2017,07,23,03,26,17.70
2017,07,23,03,27,17.70
2017,07,23,03,28,17.70
2017,07,23,03,29,17.70
2017,07,23,03,30,17.70
2017,07,23,03,31,17.70
2017,07,23,03,32,17.70
2017,07,23,03,33,17.70
2017,07,23,03,34,17.70
2017,07,23,03,35,17.70
2017,07,23,03,36,17.70
2017,07,23,03,37,17.70
2017,07,23,03,38,17.70
2017,07,23,03,39,17.70
2017,07,23,03,40,17.60
2017,07,23,03,41,17.60
2017,07,23,03,42,17.60
2017,07,23,03,43,17.60
2017,07,23,03,44,17.60
2017,07,23,03,45,17.60
2017,07,23,03,46,17.60
2017,07,23,03,47,17.60
2017,07,23,03,48,17.50
2017,07,23,03,49,17.50
2017,07,23,03,50,17.50
2017,07,23,03,51,17.50
2017,07,23,03,52,17.50
2017,07,23,03,53,17.40
2017,07,23,03,54,17.40
2017,07,23,03,55,17.40
2017,07,23,03,56,17.40
2017,07,23,03,57,17.40
2017,07,23,03,58,17.40
2017,07,23,03,59,17.30
2017,07,23,04,00,17.30
2017,07,23,04,01,17.30
2017,07,23,04,02,17.30
2017,07,23,04,03,17.30
2017,07,23,04,04,17.30
2017,07,23,04,05,17.30
2017,07,23,04,06,17.30
2017,07,23,04,07,17.30
2017,07,23,04,08,17.20
2017,07,23,04,09,17.20
2017,07,23,04,10,17.20
2017,07,23,04,11,17.20
2017,07,23,04,12,17.20
2017,07,23,04,13,17.20
2017,07,23,04,14,17.20
2017,07,23,04,15,17.20
2017,07,23,04,16,17.20
2017,07,23,04,17,17.20
2017,07,23,04,18,17.10
2017,07,23,04,19,17.10
2017,07,23,04,20,17.10
2017,07,23,04,21,17.10
2017,07,23,04,22,17.10
2017,07,23,04,23,17.10
2017,07,23,04,24,17.10
2017,07,23,04,25,17.10
2017,07,23,04,26,17.10
2017,07,23,04,27,17.00
2017,07,23,04,28,17.00
2017,07,23,04,29,17.00
2017,07,23,04,30,17.00
2017,07,23,04,31,16.90
2017,07,23,04,32,16.90
2017,07,23,04,33,16.90
2017,07,23,04,34,16.90
2017,07,23,04,35,16.90
2017,07,23,04,36,16.90
2017,07,23,04,37,16.90
2017,07,23,04,38,16.90
2017,07,23,04,39,16.90
2017,07,23,04,40,16.80
2017,07,23,04,41,16.80
2017,07,23,04,42,16.80
2017,07,23,04,43,16.80
2017,07,23,04,44,16.80
2017,07,23,04,45,16.80
2017,07,23,04,46,16.80
2017,07,23,04,47,16.80
2017,07,23,04,48,16.70
2017,07,23,04,49,16.70
2017,07,23,04,50,16.70
2017,07,23,04,51,16.70
2017,07,23,04,52,16.70
2017,07,23,04,53,16.70
2017,07,23,04,54,16.70
2017,07,23,04,55,16.70
2017,07,23,04,56,16.60
2017,07,23,04,57,16.60
2017,07,23,04,58,16.60
2017,07,23,04,59,16.60
2017,07,23,05,00,16.60
2017,07,23,05,01,16.60
2017,07,23,05,02,16.50
2017,07,23,05,03,16.50
2017,07,23,05,04,16.50
2017,07,23,05,05,16.50
2017,07,23,05,06,16.50
2017,07,23,05,07,16.40
2017,07,23,05,08,16.40
2017,07,23,05,09,16.40
2017,07,23,05,10,16.40
2017,07,23,05,11,16.40
2017,07,23,05,12,16.40
2017,07,23,05,13,16.30
2017,07,23,05,14,16.30
2017,07,23,05,15,16.30
2017,07,23,05,16,16.30
2017,07,23,05,17,16.30
2017,07,23,05,18,16.30
2017,07,23,05,19,16.30
2017,07,23,05,20,16.20
2017,07,23,05,21,16.20
2017,07,23,05,22,16.20
2017,07,23,05,23,16.20
2017,07,23,05,24,16.20
2017,07,23,05,25,16.20
2017,07,23,05,26,16.10
2017,07,23,05,27,16.10
2017,07,23,05,28,16.10
2017,07,23,05,29,16.10
2017,07,23,05,30,16.10
2017,07,23,05,31,16.10
2017,07,23,05,32,16.00
2017,07,23,05,33,16.00
2017,07,23,05,34,16.00
2017,07,23,05,35,16.00
2017,07,23,05,36,16.00
2017,07,23,05,37,15.90
2017,07,23,05,38,15.90
2017,07,23,05,39,15.90
2017,07,23,05,40,15.90
2017,07,23,05,41,15.90
2017,07,23,05,42,15.90
2017,07,23,05,43,15.90
2017,07,23,05,44,15.80
2017,07,23,05,45,15.80
2017,07,23,05,46,15.80
2017,07,23,05,47,15.80
2017,07,23,05,48,15.80
2017,07,23,05,49,15.80
2017,07,23,05,50,15.80
2017,07,23,05,51,15.80
2017,07,23,05,52,15.70
2017,07,23,05,53,15.70
2017,07,23,05,54,15.70
2017,07,23,05,55,15.70
2017,07,23,05,56,15.70
2017,07,23,05,57,15.70
2017,07,23,05,58,15.70
2017,07,23,05,59,15.70
2017,07,23,06,00,15.70
2017,07,23,06,01,15.70
2017,07,23,06,02,15.60
2017,07,23,06,03,15.60
2017,07,23,06,04,15.60
2017,07,23,06,05,15.60
2017,07,23,06,06,15.60
2017,07,23,06,07,15.60
2017,07,23,06,08,15.60
2017,07,23,06,09,15.60
2017,07,23,06,10,15.50
2017,07,23,06,11,15.50
2017,07,23,06,12,15.50
2017,07,23,06,13,15.50
2017,07,23,06,14,15.50
2017,07,23,06,15,15.50
2017,07,23,06,16,15.50
2017,07,23,06,17,15.50
2017,07,23,06,18,15.50
2017,07,23,06,19,15.50
2017,07,23,06,20,15.40
2017,07,23,06,21,15.40
2017,07,23,06,22,15.40
2017,07,23,06,23,15.40
2017,07,23,06,24,15.40
2017,07,23,06,25,15.40
2017,07,23,06,26,15.40
2017,07,23,06,27,15.40
2017,07,23,06,28,15.40
2017,07,23,06,29,15.40
2017,07,23,06,30,15.40
2017,07,23,06,31,15.40
2017,07,23,06,32,15.40
2017,07,23,06,33,15.50
2017,07,23,06,34,15.50
2017,07,23,06,35,15.50
2017,07,23,06,36,15.50
2017,07,23,06,37,15.60
2017,07,23,06,38,15.60
2017,07,23,06,39,15.60
2017,07,23,06,40,15.60
2017,07,23,06,41,15.70
2017,07,23,06,42,15.70
2017,07,23,06,43,15.70
2017,07,23,06,44,15.70
2017,07,23,06,45,15.70
2017,07,23,06,46,15.70
2017,07,23,06,47,15.70
2017,07,23,06,48,15.70
2017,07,23,06,49,15.80
2017,07,23,06,50,15.80
2017,07,23,06,51,15.80
2017,07,23,06,52,15.80
2017,07,23,06,53,15.80
2017,07,23,06,54,15.80
2017,07,23,06,55,15.80
2017,07,23,06,56,15.80
2017,07,23,06,57,15.90
2017,07,23,06,58,15.90
2017,07,23,06,59,15.90
2017,07,23,07,00,15.90
2017,07,23,07,01,16.00
2017,07,23,07,02,16.00
2017,07,23,07,03,16.00
2017,07,23,07,04,16.00
2017,07,23,07,05,16.00
2017,07,23,07,06,16.10
2017,07,23,07,07,16.10
2017,07,23,07,08,16.10
2017,07,23,07,09,16.10
2017,07,23,07,10,16.10
2017,07,23,07,11,16.10
2017,07,23,07,12,16.10
2017,07,23,07,13,16.20
2017,07,23,07,14,16.20
2017,07,23,07,15,16.20
2017,07,23,07,16,16.20
2017,07,23,07,17,16.20
2017,07,23,07,18,16.20
2017,07,23,07,19,16.20
2017,07,23,07,20,16.30
2017,07,23,07,21,16.30
2017,07,23,07,22,16.30
2017,07,23,07,23,16.40
2017,07,23,07,24,16.50
2017,07,23,07,25,16.60
2017,07,23,07,26,16.70
2017,07,23,07,27,16.70
2017,07,23,07,28,16.80
2017,07,23,07,29,16.80
2017,07,23,07,30,16.80
2017,07,23,07,31,16.80
2017,07,23,07,32,16.90
2017,07,23,07,33,16.90
2017,07,23,07,34,17.00
2017,07,23,07,35,17.00
2017,07,23,07,36,17.10
2017,07,23,07,37,17.10
2017,07,23,07,38,17.10
2017,07,23,07,39,17.20
2017,07,23,07,40,17.20
2017,07,23,07,41,17.30
2017,07,23,07,42,17.30
2017,07,23,07,43,17.30
2017,07,23,07,44,17.30
2017,07,23,07,45,17.30
2017,07,23,07,46,17.40
2017,07,23,07,47,17.40
2017,07,23,07,48,17.40
2017,07,23,07,49,17.40
2017,07,23,07,50,17.40
2017,07,23,07,51,17.50
2017,07,23,07,52,17.50
2017,07,23,07,53,17.60
2017,07,23,07,54,17.60
2017,07,23,07,55,17.70
2017,07,23,07,56,17.70
2017,07,23,07,57,17.80
2017,07,23,07,58,17.80
2017,07,23,07,59,17.80
2017,07,23,08,00,17.90
2017,07,23,08,01,17.90
2017,07,23,08,02,18.00
2017,07,23,08,03,18.10
2017,07,23,08,04,18.10
2017,07,23,08,05,18.10
2017,07,23,08,06,18.20
2017,07,23,08,07,18.20
2017,07,23,08,08,18.20
2017,07,23,08,09,18.30
2017,07,23,08,10,18.30
2017,07,23,08,11,18.30
2017,07,23,08,12,18.40
2017,07,23,08,13,18.40
2017,07,23,08,14,18.40
2017,07,23,08,15,18.50
2017,07,23,08,16,18.50
2017,07,23,08,17,18.50
2017,07,23,08,18,18.60
2017,07,23,08,19,18.60
2017,07,23,08,20,18.60
2017,07,23,08,21,18.60
2017,07,23,08,22,18.60
2017,07,23,08,23,18.70
2017,07,23,08,24,18.70
2017,07,23,08,25,18.70
2017,07,23,08,26,18.70
2017,07,23,08,27,18.70
2017,07,23,08,28,18.70
2017,07,23,08,29,18.70
2017,07,23,08,30,18.70
2017,07,23,08,31,18.70
2017,07,23,08,32,18.80
2017,07,23,08,33,18.80
2017,07,23,08,34,18.80
2017,07,23,08,35,18.80
2017,07,23,08,36,18.80
2017,07,23,08,37,18.80
2017,07,23,08,38,18.80
2017,07,23,08,39,18.80
2017,07,23,08,40,18.70
2017,07,23,08,41,18.70
2017,07,23,08,42,18.80
2017,07,23,08,43,18.80
2017,07,23,08,44,18.80
2017,07,23,08,45,18.80
2017,07,23,08,46,18.80
2017,07,23,08,47,18.80
2017,07,23,08,48,18.80
2017,07,23,08,49,18.80
2017,07,23,08,50,18.80
2017,07,23,08,51,18.80
2017,07,23,08,52,18.80
2017,07,23,08,53,18.80
2017,07,23,08,54,18.80
2017,07,23,08,55,18.80
2017,07,23,08,56,18.80
2017,07,23,08,57,18.80
2017,07,23,08,58,18.80
2017,07,23,08,59,18.80
2017,07,23,09,00,18.80
2017,07,23,09,01,18.80
2017,07,23,09,02,18.80
2017,07,23,09,03,18.80
2017,07,23,09,04,18.90
2017,07,23,09,05,18.90
2017,07,23,09,06,18.90
2017,07,23,09,07,18.90
2017,07,23,09,08,18.90
2017,07,23,09,09,18.90
2017,07,23,09,10,18.80
2017,07,23,09,11,18.80
2017,07,23,09,12,18.80
2017,07,23,09,13,18.80
2017,07,23,09,14,18.80
2017,07,23,09,15,18.80
2017,07,23,09,16,18.80
2017,07,23,09,17,18.70
2017,07,23,09,18,18.80
2017,07,23,09,19,18.80
2017,07,23,09,20,18.80
2017,07,23,09,21,18.80
2017,07,23,09,22,18.80
2017,07,23,09,23,18.80
2017,07,23,09,24,18.80
2017,07,23,09,25,18.80
2017,07,23,09,26,18.80
2017,07,23,09,27,18.80
2017,07,23,09,28,18.90
2017,07,23,09,29,18.90
2017,07,23,09,30,18.90
2017,07,23,09,31,19.00
2017,07,23,09,32,19.00
2017,07,23,09,33,19.00
2017,07,23,09,34,19.10
2017,07,23,09,35,19.10
2017,07,23,09,36,19.10
2017,07,23,09,37,19.10
2017,07,23,09,38,19.10
2017,07,23,09,39,19.10
2017,07,23,09,40,19.10
2017,07,23,09,41,19.10
2017,07,23,09,42,19.10
2017,07,23,09,43,19.10
2017,07,23,09,44,19.10
2017,07,23,09,45,19.00
2017,07,23,09,46,19.00
2017,07,23,09,47,19.00
2017,07,23,09,48,19.00
2017,07,23,09,49,19.00
2017,07,23,09,50,19.00
2017,07,23,09,51,19.00
2017,07,23,09,52,19.10
2017,07,23,09,53,19.10
2017,07,23,09,54,19.10
2017,07,23,09,55,19.10
2017,07,23,09,56,19.10
2017,07,23,09,57,19.10
2017,07,23,09,58,19.10
2017,07,23,09,59,19.20
2017,07,23,10,00,19.20
2017,07,23,10,01,19.20
2017,07,23,10,02,19.20
2017,07,23,10,03,19.20
2017,07,23,10,04,19.20
2017,07,23,10,05,19.20
2017,07,23,10,06,19.20
2017,07,23,10,07,19.20
2017,07,23,10,08,19.20
2017,07,23,10,09,19.20
2017,07,23,10,10,19.20
2017,07,23,10,11,19.20
2017,07,23,10,12,19.20
2017,07,23,10,13,19.20
2017,07,23,10,14,19.20
2017,07,23,10,15,19.20
2017,07,23,10,16,19.30
2017,07,23,10,17,19.30
2017,07,23,10,18,19.40
2017,07,23,10,19,19.50
2017,07,23,10,20,19.50
2017,07,23,10,21,19.60
2017,07,23,10,22,19.60
2017,07,23,10,23,19.60
2017,07,23,10,24,19.70
2017,07,23,10,25,19.70
2017,07,23,10,26,19.70
2017,07,23,10,27,19.80
2017,07,23,10,28,19.80
2017,07,23,10,29,19.90
2017,07,23,10,30,20.00
2017,07,23,10,31,20.10
2017,07,23,10,32,20.20
2017,07,23,10,33,20.20
2017,07,23,10,34,20.20
2017,07,23,10,35,20.30
2017,07,23,10,36,20.40
2017,07,23,10,37,20.40
2017,07,23,10,38,20.40
2017,07,23,10,39,20.50
2017,07,23,10,40,20.50
2017,07,23,10,41,20.60
2017,07,23,10,42,20.60
2017,07,23,10,43,20.60
2017,07,23,10,44,20.70
2017,07,23,10,45,20.70
2017,07,23,10,46,20.80
2017,07,23,10,47,20.80
2017,07,23,10,48,20.80
2017,07,23,10,49,20.90
2017,07,23,10,50,20.90
2017,07,23,10,51,20.90
2017,07,23,10,52,20.90
2017,07,23,10,53,20.90
2017,07,23,10,54,20.90
2017,07,23,10,55,20.90
2017,07,23,10,56,20.90
2017,07,23,10,57,20.90
2017,07,23,10,58,20.90
2017,07,23,10,59,20.90
2017,07,23,11,00,21.00
2017,07,23,11,01,21.00
2017,07,23,11,02,20.90
2017,07,23,11,03,20.90
2017,07,23,11,04,20.90
2017,07,23,11,05,20.80
2017,07,23,11,06,20.80
2017,07,23,11,07,20.80
2017,07,23,11,08,20.80
2017,07,23,11,09,20.90
2017,07,23,11,10,20.90
2017,07,23,11,11,20.80
2017,07,23,11,12,20.80
2017,07,23,11,13,20.80
2017,07,23,11,14,20.80
2017,07,23,11,15,20.80
2017,07,23,11,16,20.80
2017,07,23,11,17,20.80
2017,07,23,11,18,20.70
2017,07,23,11,19,20.70
2017,07,23,11,20,20.70
2017,07,23,11,21,20.80
2017,07,23,11,22,20.70
2017,07,23,11,23,20.70
2017,07,23,11,24,20.70
2017,07,23,11,25,20.60
2017,07,23,11,26,20.60
2017,07,23,11,27,20.70
2017,07,23,11,28,20.70
2017,07,23,11,29,20.70
2017,07,23,11,30,20.80
2017,07,23,11,31,20.80
2017,07,23,11,32,20.80
2017,07,23,11,33,20.80
2017,07,23,11,34,20.90
2017,07,23,11,35,20.90
2017,07,23,11,36,21.00
2017,07,23,11,37,21.10
2017,07,23,11,38,21.10
2017,07,23,11,39,21.20
2017,07,23,11,40,21.20
2017,07,23,11,41,21.20
2017,07,23,11,42,21.30
2017,07,23,11,43,21.30
2017,07,23,11,44,21.30
2017,07,23,11,45,21.40
2017,07,23,11,46,21.40
2017,07,23,11,47,21.40
2017,07,23,11,48,21.50
2017,07,23,11,49,21.60
2017,07,23,11,50,21.60
2017,07,23,11,51,21.60
2017,07,23,11,52,21.70
2017,07,23,11,53,21.60
2017,07,23,11,54,21.60
2017,07,23,11,55,21.60
2017,07,23,11,56,21.60
2017,07,23,11,57,21.60
2017,07,23,11,58,21.60
2017,07,23,11,59,21.60
2017,07,23,12,00,21.60
2017,07,23,12,01,21.60
2017,07,23,12,02,21.70
2017,07,23,12,03,21.80
2017,07,23,12,04,21.80
2017,07,23,12,05,21.90
2017,07,23,12,06,22.10
2017,07,23,12,07,22.20
2017,07,23,12,08,22.20
2017,07,23,12,09,22.20
2017,07,23,12,10,22.30
2017,07,23,12,11,22.30
2017,07,23,12,12,22.30
2017,07,23,12,13,22.40
2017,07,23,12,14,22.50
2017,07,23,12,15,22.60
2017,07,23,12,16,22.70
2017,07,23,12,17,22.70
2017,07,23,12,18,22.80
2017,07,23,12,19,22.80
2017,07,23,12,20,22.80
2017,07,23,12,21,22.70
2017,07,23,12,22,22.70
2017,07,23,12,23,22.70
2017,07,23,12,24,22.70
2017,07,23,12,25,22.70
2017,07,23,12,26,22.60
2017,07,23,12,27,22.60
2017,07,23,12,28,22.50
2017,07,23,12,29,22.50
2017,07,23,12,30,22.50
2017,07,23,12,31,22.50
2017,07,23,12,32,22.40
2017,07,23,12,33,22.40
2017,07,23,12,34,22.40
2017,07,23,12,35,22.40
2017,07,23,12,36,22.40
2017,07,23,12,37,22.30
2017,07,23,12,38,22.30
2017,07,23,12,39,22.40
2017,07,23,12,40,22.50
2017,07,23,12,41,22.50
2017,07,23,12,42,22.50
2017,07,23,12,43,22.50
2017,07,23,12,44,22.50
2017,07,23,12,45,22.60
2017,07,23,12,46,22.60
2017,07,23,12,47,22.60
2017,07,23,12,48,22.70
2017,07,23,12,49,22.70
2017,07,23,12,50,22.70
2017,07,23,12,51,22.70
2017,07,23,12,52,22.70
2017,07,23,12,53,22.70
2017,07,23,12,54,22.70
2017,07,23,12,55,22.60
2017,07,23,12,56,22.50
2017,07,23,12,57,22.40
2017,07,23,12,58,22.30
2017,07,23,12,59,22.20
2017,07,23,13,00,22.20
2017,07,23,13,01,22.20
2017,07,23,13,02,22.30
2017,07,23,13,03,22.40
2017,07,23,13,04,22.40
2017,07,23,13,05,22.50
2017,07,23,13,06,22.50
2017,07,23,13,07,22.40
2017,07,23,13,08,22.40
2017,07,23,13,09,22.40
2017,07,23,13,10,22.40
2017,07,23,13,11,22.50
2017,07,23,13,12,22.40
2017,07,23,13,13,22.40
2017,07,23,13,14,22.40
2017,07,23,13,15,22.40
2017,07,23,13,16,22.30
2017,07,23,13,17,22.30
2017,07,23,13,18,22.30
2017,07,23,13,19,22.30
2017,07,23,13,20,22.30
2017,07,23,13,21,22.30
2017,07,23,13,22,22.40
2017,07,23,13,23,22.50
2017,07,23,13,24,22.50
2017,07,23,13,25,22.50
2017,07,23,13,26,22.60
2017,07,23,13,27,22.70
2017,07,23,13,28,22.80
2017,07,23,13,29,22.80
2017,07,23,13,30,22.80
2017,07,23,13,31,22.80
2017,07,23,13,32,22.80
2017,07,23,13,33,22.70
2017,07,23,13,34,22.60
2017,07,23,13,35,22.60
2017,07,23,13,36,22.60
2017,07,23,13,37,22.60
2017,07,23,13,38,22.60
2017,07,23,13,39,22.60
2017,07,23,13,40,22.60
2017,07,23,13,41,22.60
2017,07,23,13,42,22.60
2017,07,23,13,43,22.60
2017,07,23,13,44,22.60
2017,07,23,13,45,22.50
2017,07,23,13,46,22.40
2017,07,23,13,47,22.30
2017,07,23,13,48,22.30
2017,07,23,13,49,22.40
2017,07,23,13,50,22.50
2017,07,23,13,51,22.50
2017,07,23,13,52,22.60
2017,07,23,13,53,22.70
2017,07,23,13,54,22.70
2017,07,23,13,55,22.80
2017,07,23,13,56,22.90
2017,07,23,13,57,23.00
2017,07,23,13,58,23.10
2017,07,23,13,59,23.20
2017,07,23,14,00,23.10
2017,07,23,14,01,23.10
2017,07,23,14,02,23.10
2017,07,23,14,03,23.10
2017,07,23,14,04,23.10
2017,07,23,14,05,23.10
2017,07,23,14,06,23.20
2017,07,23,14,07,23.20
2017,07,23,14,08,23.20
2017,07,23,14,09,23.20
2017,07,23,14,10,23.10
2017,07,23,14,11,23.10
2017,07,23,14,12,23.10
2017,07,23,14,13,23.00
2017,07,23,14,14,22.90
2017,07,23,14,15,22.90
2017,07,23,14,16,22.90
2017,07,23,14,17,22.90
2017,07,23,14,18,22.90
2017,07,23,14,19,22.90
2017,07,23,14,20,22.90
2017,07,23,14,21,23.00
2017,07,23,14,22,23.00
2017,07,23,14,23,23.10
2017,07,23,14,24,23.20
2017,07,23,14,25,23.20
2017,07,23,14,26,23.30
2017,07,23,14,27,23.40
2017,07,23,14,28,23.40
2017,07,23,14,29,23.50
2017,07,23,14,30,23.40
2017,07,23,14,31,23.40
2017,07,23,14,32,23.40
2017,07,23,14,33,23.40
2017,07,23,14,34,23.40
2017,07,23,14,35,23.30
2017,07,23,14,36,23.30
2017,07,23,14,37,23.20
2017,07,23,14,38,23.20
2017,07,23,14,39,23.20
2017,07,23,14,40,23.10
2017,07,23,14,41,23.00
2017,07,23,14,42,22.90
2017,07,23,14,43,22.90
2017,07,23,14,44,23.00
2017,07,23,14,45,23.10
2017,07,23,14,46,23.20
2017,07,23,14,47,23.20
2017,07,23,14,48,23.20
2017,07,23,14,49,23.10
2017,07,23,14,50,23.10
2017,07,23,14,51,23.00
2017,07,23,14,52,23.00
2017,07,23,14,53,23.00
2017,07,23,14,54,23.00
2017,07,23,14,55,23.10
2017,07,23,14,56,23.20
2017,07,23,14,57,23.30
2017,07,23,14,58,23.30
2017,07,23,14,59,23.40
2017,07,23,15,00,23.40
2017,07,23,15,01,23.30
2017,07,23,15,02,23.30
2017,07,23,15,03,23.30
2017,07,23,15,04,23.20
2017,07,23,15,05,23.20
2017,07,23,15,06,23.20
2017,07,23,15,07,23.20
2017,07,23,15,08,23.20
2017,07,23,15,09,23.10
2017,07,23,15,10,23.10
2017,07,23,15,11,23.00
2017,07,23,15,12,23.00
2017,07,23,15,13,22.90
2017,07,23,15,14,22.80
2017,07,23,15,15,22.80
2017,07,23,15,16,22.70
2017,07,23,15,17,22.60
2017,07,23,15,18,22.60
2017,07,23,15,19,22.60
2017,07,23,15,20,22.60
2017,07,23,15,21,22.70
2017,07,23,15,22,22.70
2017,07,23,15,23,22.80
2017,07,23,15,24,22.80
2017,07,23,15,25,22.80
2017,07,23,15,26,22.90
2017,07,23,15,27,22.90
2017,07,23,15,28,22.90
2017,07,23,15,29,23.00
2017,07,23,15,30,23.10
2017,07,23,15,31,23.20
2017,07,23,15,32,23.30
2017,07,23,15,33,23.30
2017,07,23,15,34,23.40
2017,07,23,15,35,23.60
2017,07,23,15,36,23.70
2017,07,23,15,37,23.80
2017,07,23,15,38,23.80
2017,07,23,15,39,23.90
2017,07,23,15,40,23.90
2017,07,23,15,41,23.90
2017,07,23,15,42,23.90
2017,07,23,15,43,24.00
2017,07,23,15,44,24.00
2017,07,23,15,45,24.00
2017,07,23,15,46,23.90
2017,07,23,15,47,23.80
2017,07,23,15,48,23.70
2017,07,23,15,49,23.60
2017,07,23,15,50,23.50
2017,07,23,15,51,23.50
2017,07,23,15,52,23.50
2017,07,23,15,53,23.60
2017,07,23,15,54,23.60
2017,07,23,15,55,23.50
2017,07,23,15,56,23.50
2017,07,23,15,57,23.40
2017,07,23,15,58,23.50
2017,07,23,15,59,23.50
2017,07,23,16,00,23.60
2017,07,23,16,01,23.60
2017,07,23,16,02,23.60
2017,07,23,16,03,23.60
2017,07,23,16,04,23.60
2017,07,23,16,05,23.70
2017,07,23,16,06,23.70
2017,07,23,16,07,23.70
2017,07,23,16,08,23.70
2017,07,23,16,09,23.60
2017,07,23,16,10,23.60
2017,07,23,16,11,23.60
2017,07,23,16,12,23.60
2017,07,23,16,13,23.60
2017,07,23,16,14,23.70
2017,07,23,16,15,23.70
2017,07,23,16,16,23.80
2017,07,23,16,17,23.80
2017,07,23,16,18,23.80
2017,07,23,16,19,23.80
2017,07,23,16,20,23.80
2017,07,23,16,21,23.80
2017,07,23,16,22,23.70
2017,07,23,16,23,23.70
2017,07,23,16,24,23.70
2017,07,23,16,25,23.70
2017,07,23,16,26,23.70
2017,07,23,16,27,23.70
2017,07,23,16,28,23.70
2017,07,23,16,29,23.70
2017,07,23,16,30,23.70
2017,07,23,16,31,23.70
2017,07,23,16,32,23.70
2017,07,23,16,33,23.80
2017,07,23,16,34,23.80
2017,07,23,16,35,23.80
2017,07,23,16,36,23.70
2017,07,23,16,37,23.70
2017,07,23,16,38,23.70
2017,07,23,16,39,23.70
2017,07,23,16,40,23.70
2017,07,23,16,41,23.70
2017,07,23,16,42,23.80
2017,07,23,16,43,23.80
2017,07,23,16,44,23.80
2017,07,23,16,45,23.80
2017,07,23,16,46,23.80
2017,07,23,16,47,23.80
2017,07,23,16,48,23.80
2017,07,23,16,49,23.80
2017,07,23,16,50,23.80
2017,07,23,16,51,23.80
2017,07,23,16,52,23.80
2017,07,23,16,53,23.80
2017,07,23,16,54,23.80
2017,07,23,16,55,23.80
2017,07,23,16,56,23.80
2017,07,23,16,57,23.70
2017,07,23,16,58,23.70
2017,07,23,16,59,23.70
2017,07,23,17,00,23.60
2017,07,23,17,01,23.60
2017,07,23,17,02,23.60
2017,07,23,17,03,23.60
2017,07,23,17,04,23.60
2017,07,23,17,05,23.70
2017,07,23,17,06,23.70
2017,07,23,17,07,23.70
2017,07,23,17,08,23.80
2017,07,23,17,09,23.80
2017,07,23,17,10,23.80
2017,07,23,17,11,23.80
2017,07,23,17,12,23.70
2017,07,23,17,13,23.60
2017,07,23,17,14,23.50
2017,07,23,17,15,23.40
2017,07,23,17,16,23.30
2017,07,23,17,17,23.30
2017,07,23,17,18,23.30
2017,07,23,17,19,23.30